Flag for Vietnam

Past Weather in Ho Chi Minh, Vietnam — Yesterday and Last 2 Weeks

Currently: 82 °F. Scattered clouds. (Weather station: Ho Chi Minh, Vietnam). See more current weather

Past Weather in Ho Chi Minh — Graph

°F

Ho Chi Minh Temperature Yesterday

Maximum temperature yesterday: 88 °F (at 12:30 pm)
Minimum temperature yesterday: 68 °F (at 6:30 am)
Average temperature yesterday: 78 °F

High & Low Weather Summary for the Past Weeks

 TemperatureHumidityPressure
High93 °F (Jan 7, 12:00 pm)100% (Jan 15, 4:00 am)29.95 "Hg (Jan 15, 4:00 am)
Low64 °F (Jan 14, 6:00 am)31% (Jan 18, 3:00 pm)29.71 "Hg (Jan 6, 3:00 pm)
Average79 °F65%29.83 "Hg
* Reported Jan 4 11:00 am — Jan 19 11:30 am, Ho Chi Minh. Weather by CustomWeather, © 2021

Note: Actual official high and low records may vary slightly from our data, if they occured in-between our weather recording intervals... More about our weather records

Ho Chi Minh Weather History for the Previous 24 Hours

Scroll right to see more
 ConditionsComfort  
Time TempWeatherWind HumidityBarometerVisibility
11:30 am
Tue, Jan 19
81 °FScattered clouds.1 mph51%29.92 "Hg5 mi
11:00 am79 °FClear.7 mph58%29.92 "Hg5 mi
10:30 am79 °FClear.5 mph54%29.92 "Hg4 mi
10:00 am77 °FClear.2 mph54%29.95 "Hg4 mi
9:30 am75 °FClear.2 mph57%29.95 "Hg4 mi
9:00 am73 °FScattered clouds.2 mph57%29.92 "Hg4 mi
8:30 am72 °FScattered clouds.1 mph65%29.92 "Hg5 mi
8:00 am70 °FScattered clouds.3 mph64%29.92 "Hg5 mi
7:30 am70 °FScattered clouds.2 mph69%29.92 "Hg5 mi
6:30 am68 °FScattered clouds.3 mph73%29.89 "Hg5 mi
6:00 am68 °FPassing clouds.3 mph69%29.86 "Hg5 mi
5:30 am68 °FPassing clouds.5 mph69%29.86 "Hg5 mi
5:00 am68 °FPassing clouds.3 mph69%29.83 "Hg5 mi
4:30 am68 °FPassing clouds.2 mph69%29.83 "Hg5 mi
4:00 am70 °FPassing clouds.2 mph64%29.83 "Hg5 mi
3:30 am70 °FPassing clouds.5 mph64%29.83 "HgN/A
3:00 am70 °FPassing clouds.6 mph60%29.83 "HgN/A
2:30 am72 °FPassing clouds.5 mph57%29.83 "HgN/A
2:00 am72 °FPassing clouds.3 mph57%29.83 "HgN/A
1:30 am72 °FPassing clouds.3 mph57%29.86 "HgN/A
1:00 am72 °FPassing clouds.3 mph57%29.86 "HgN/A
12:30 am73 °FPassing clouds.6 mph53%29.86 "HgN/A
12:00 am73 °FPassing clouds.7 mph53%29.86 "HgN/A
11:30 pm
Mon, Jan 18
73 °FPassing clouds.7 mph53%29.86 "HgN/A
11:00 pm75 °FPassing clouds.8 mph47%29.86 "HgN/A
10:30 pm77 °FPassing clouds.8 mph47%29.89 "HgN/A
10:00 pm77 °FPassing clouds.3 mph65%29.89 "HgN/A
9:30 pm77 °FPassing clouds.1 mph69%29.86 "HgN/A
9:00 pm77 °FPassing clouds.1 mph69%29.86 "HgN/A
8:30 pm77 °FPassing clouds.2 mph69%29.86 "HgN/A
8:00 pm77 °FPassing clouds.5 mph65%29.86 "HgN/A
7:30 pm79 °FPassing clouds.7 mph65%29.86 "HgN/A
7:00 pm79 °FPassing clouds.9 mph65%29.86 "HgN/A
6:30 pm81 °FPassing clouds.10 mph62%29.83 "HgN/A
6:00 pm84 °FPassing clouds.8 mph51%29.83 "HgN/A
5:30 pm86 °FPassing clouds.8 mph33%29.80 "HgN/A
4:30 pm88 °FPassing clouds.6 mph31%29.80 "HgN/A
4:00 pm88 °FPassing clouds.3 mph31%29.80 "HgN/A
3:30 pm88 °FPassing clouds.8 mph31%29.80 "HgN/A
3:00 pm88 °FPassing clouds.6 mph31%29.80 "HgN/A
2:30 pm86 °FPassing clouds.8 mph33%29.83 "HgN/A
2:00 pm88 °FPassing clouds.8 mph35%29.83 "HgN/A
1:30 pm86 °FPassing clouds.7 mph35%29.83 "HgN/A
1:00 pm86 °FPassing clouds.8 mph38%29.86 "HgN/A
12:30 pm88 °FPassing clouds.7 mph35%29.86 "HgN/A
12:00 pm84 °FPassing clouds.3 mph40%29.89 "HgN/A
Weather by CustomWeather, © 2021

See weather overview